When you browse on this site, cookies collect data to enhance your experience and personalize the content and advertising you see.
Visit our Privacy Policy to learn more. By continuing to use the site, you agree to this use of cookies and data.
  • In Schweiz
  • Länderverzeichnis
  • Für 7 Tage
  • Wassertemperatur
  • Wetterkarte
  • Widgets
  • user-avatar
    Anmelden

    Stündliche Wetter Kabul

    Heute, 16 Oktober, Mittwoch

    Zeit Temperatur Niederschläge Wind Luftdruck Luftfeuchtigkeit
    00:00 +14°C° 0 mm 0 m/S 613 mmHg 29%
    01:00 +13°C° 0 mm 0 m/S 612 mmHg 30%
    02:00 +13°C° 0 mm 0 m/S 612 mmHg 31%
    03:00 +12°C° 0 mm 0 m/S 612 mmHg 31%
    04:00 +12°C° 0 mm 0 m/S 611 mmHg 32%
    05:00 +11°C° 0 mm 0 m/S 611 mmHg 33%
    06:00 +13°C° 0 mm 0 m/S 612 mmHg 31%
    07:00 +14°C° 0 mm 0 m/S 613 mmHg 30%
    08:00 +15°C° 0 mm 0 m/S 614 mmHg 29%
    09:00 +17°C° 0 mm 0 m/S 614 mmHg 25%
    10:00 +20°C° 0 mm 1 m/S 614 mmHg 20%
    11:00 +21°C° 0 mm 1 m/S 614 mmHg 16%
    12:00 +22°C° 0 mm 1 m/S 614 mmHg 16%
    13:00 +23°C° 0 mm 1 m/S 614 mmHg 15%
    14:00 +23°C° 0 mm 1 m/S 613 mmHg 14%
    15:00 +23°C° 0 mm 1 m/S 613 mmHg 15%
    16:00 +23°C° 0 mm 2 m/S 613 mmHg 16%
    17:00 +23°C° 0 mm 2 m/S 613 mmHg 17%
    18:00 +21°C° 0 mm 2 m/S 613 mmHg 22%
    19:00 +20°C° 0 mm 1 m/S 613 mmHg 27%
    20:00 +19°C° 0 mm 1 m/S 613 mmHg 32%
    21:00 +18°C° 0 mm 1 m/S 612 mmHg 35%
    22:00 +16°C° 0 mm 1 m/S 612 mmHg 39%
    23:00 +15°C° 0 mm 0 m/S 612 mmHg 42%

    Morgen, 17 Oktober, Donnerstag

    Zeit Temperatur Niederschläge Wind Luftdruck Luftfeuchtigkeit
    00:00 +14°C° 0 mm 0 m/S 612 mmHg 44%
    01:00 +14°C° 0 mm 0 m/S 611 mmHg 46%
    02:00 +13°C° 0 mm 0 m/S 611 mmHg 48%
    03:00 +13°C° 0 mm 0 m/S 611 mmHg 49%
    04:00 +12°C° 0 mm 0 m/S 611 mmHg 50%
    05:00 +12°C° 0 mm 0 m/S 610 mmHg 51%
    06:00 +13°C° 0 mm 0 m/S 611 mmHg 47%
    07:00 +14°C° 0 mm 0 m/S 612 mmHg 43%
    08:00 +15°C° 0 mm 0 m/S 613 mmHg 39%
    09:00 +16°C° 0 mm 0 m/S 613 mmHg 38%
    10:00 +19°C° 0 mm 1 m/S 613 mmHg 37%
    11:00 +20°C° 0 mm 1 m/S 613 mmHg 36%
    12:00 +21°C° 0 mm 1 m/S 613 mmHg 33%
    13:00 +21°C° 0 mm 1 m/S 613 mmHg 30%
    14:00 +22°C° 0 mm 1 m/S 613 mmHg 28%
    15:00 +21°C° 0.1 mm 2 m/S 613 mmHg 28%
    16:00 +20°C° 0.1 mm 2 m/S 613 mmHg 29%
    17:00 +20°C° 0.1 mm 3 m/S 613 mmHg 29%
    18:00 +19°C° 0.3 mm 3 m/S 613 mmHg 36%
    19:00 +17°C° 0.3 mm 3 m/S 613 mmHg 42%
    20:00 +16°C° 0.3 mm 2 m/S 613 mmHg 48%
    21:00 +15°C° 0.1 mm 2 m/S 612 mmHg 50%
    22:00 +15°C° 0.1 mm 1 m/S 612 mmHg 52%
    23:00 +14°C° 0.1 mm 1 m/S 612 mmHg 53%

    übermorgen, 18 Oktober, Freitag

    Zeit Temperatur Niederschläge Wind Luftdruck Luftfeuchtigkeit
    00:00 +14°C° 0 mm 1 m/S 612 mmHg 54%
    01:00 +13°C° 0 mm 0 m/S 612 mmHg 54%
    02:00 +12°C° 0 mm 0 m/S 611 mmHg 55%
    03:00 +12°C° 0.1 mm 0 m/S 611 mmHg 56%
    04:00 +12°C° 0.1 mm 0 m/S 611 mmHg 56%
    05:00 +11°C° 0.1 mm 0 m/S 611 mmHg 57%
    06:00 +12°C° 0 mm 0 m/S 611 mmHg 54%
    07:00 +13°C° 0 mm 0 m/S 612 mmHg 50%
    08:00 +13°C° 0 mm 0 m/S 613 mmHg 46%
    09:00 +14°C° 0 mm 0 m/S 613 mmHg 42%
    10:00 +16°C° 0 mm 1 m/S 613 mmHg 38%
    11:00 +18°C° 0 mm 1 m/S 613 mmHg 34%
    12:00 +18°C° 0.1 mm 2 m/S 613 mmHg 32%
    13:00 +18°C° 0.1 mm 2 m/S 613 mmHg 30%
    14:00 +19°C° 0.1 mm 2 m/S 613 mmHg 28%
    15:00 +18°C° 0.1 mm 3 m/S 613 mmHg 34%
    16:00 +17°C° 0.1 mm 3 m/S 612 mmHg 39%
    17:00 +16°C° 0.1 mm 3 m/S 612 mmHg 45%
    18:00 +15°C° 0.1 mm 2 m/S 612 mmHg 45%
    19:00 +15°C° 0.1 mm 2 m/S 612 mmHg 46%
    20:00 +15°C° 0.1 mm 1 m/S 613 mmHg 46%
    21:00 +15°C° 0 mm 1 m/S 613 mmHg 48%
    22:00 +13°C° 0 mm 0 m/S 613 mmHg 49%
    23:00 +13°C° 0 mm 0 m/S 613 mmHg 51%

    19 Oktober, Samstag

    Zeit Temperatur Niederschläge Wind Luftdruck Luftfeuchtigkeit
    00:00 +13°C° 0 mm 0 m/S 612 mmHg 52%
    01:00 +13°C° 0 mm 0 m/S 612 mmHg 54%
    02:00 +12°C° 0 mm 0 m/S 612 mmHg 55%
    03:00 +12°C° 0 mm 0 m/S 612 mmHg 56%
    04:00 +12°C° 0 mm 0 m/S 612 mmHg 57%
    05:00 +11°C° 0 mm 0 m/S 611 mmHg 57%
    06:00 +12°C° 0 mm 0 m/S 612 mmHg 55%
    07:00 +12°C° 0 mm 0 m/S 613 mmHg 52%
    08:00 +13°C° 0 mm 0 m/S 613 mmHg 49%
    09:00 +14°C° 0 mm 0 m/S 613 mmHg 45%
    10:00 +16°C° 0 mm 1 m/S 613 mmHg 42%
    11:00 +18°C° 0 mm 1 m/S 614 mmHg 38%
    12:00 +18°C° 0 mm 1 m/S 614 mmHg 35%
    13:00 +19°C° 0 mm 1 m/S 613 mmHg 32%
    14:00 +20°C° 0 mm 1 m/S 613 mmHg 29%
    15:00 +19°C° 0 mm 2 m/S 613 mmHg 29%
    16:00 +19°C° 0 mm 2 m/S 613 mmHg 29%
    17:00 +19°C° 0 mm 2 m/S 613 mmHg 29%
    18:00 +18°C° 0.1 mm 2 m/S 613 mmHg 33%
    19:00 +17°C° 0.1 mm 2 m/S 613 mmHg 37%
    20:00 +17°C° 0.1 mm 2 m/S 613 mmHg 41%
    21:00 +16°C° 0 mm 1 m/S 613 mmHg 43%
    22:00 +16°C° 0 mm 1 m/S 613 mmHg 45%
    23:00 +14°C° 0 mm 0 m/S 613 mmHg 47%

    20 Oktober, Sonntag

    Zeit Temperatur Niederschläge Wind Luftdruck Luftfeuchtigkeit
    00:00 +13°C° 0 mm 0 m/S 612 mmHg 49%
    01:00 +13°C° 0 mm 0 m/S 612 mmHg 52%
    02:00 +12°C° 0 mm 0 m/S 612 mmHg 54%
    03:00 +12°C° 0 mm 0 m/S 612 mmHg 54%
    04:00 +11°C° 0 mm 0 m/S 611 mmHg 55%
    05:00 +11°C° 0 mm 0 m/S 611 mmHg 55%
    06:00 +12°C° 0 mm 0 m/S 612 mmHg 51%
    07:00 +13°C° 0 mm 0 m/S 612 mmHg 47%
    08:00 +14°C° 0 mm 0 m/S 613 mmHg 42%
    09:00 +16°C° 0 mm 1 m/S 613 mmHg 39%
    10:00 +18°C° 0 mm 1 m/S 613 mmHg 36%
    11:00 +19°C° 0 mm 1 m/S 614 mmHg 32%
    12:00 +19°C° 0 mm 1 m/S 613 mmHg 30%
    13:00 +20°C° 0 mm 1 m/S 613 mmHg 27%
    14:00 +21°C° 0 mm 1 m/S 613 mmHg 24%
    15:00 +21°C° 0 mm 1 m/S 613 mmHg 24%
    16:00 +20°C° 0 mm 2 m/S 613 mmHg 25%
    17:00 +20°C° 0 mm 2 m/S 613 mmHg 25%
    18:00 +19°C° 0 mm 2 m/S 613 mmHg 30%
    19:00 +18°C° 0 mm 2 m/S 613 mmHg 34%
    20:00 +18°C° 0 mm 1 m/S 613 mmHg 39%
    21:00 +16°C° 0 mm 1 m/S 613 mmHg 41%
    22:00 +15°C° 0 mm 1 m/S 612 mmHg 44%
    23:00 +14°C° 0 mm 0 m/S 612 mmHg 46%

    21 Oktober, Montag

    Zeit Temperatur Niederschläge Wind Luftdruck Luftfeuchtigkeit
    00:00 +13°C° 0 mm 0 m/S 612 mmHg 47%
    01:00 +13°C° 0 mm 0 m/S 612 mmHg 49%
    02:00 +12°C° 0 mm 0 m/S 611 mmHg 50%
    03:00 +12°C° 0 mm 0 m/S 611 mmHg 51%
    04:00 +12°C° 0 mm 0 m/S 611 mmHg 52%
    05:00 +11°C° 0 mm 0 m/S 611 mmHg 53%
    06:00 +12°C° 0 mm 0 m/S 611 mmHg 49%
    07:00 +13°C° 0 mm 0 m/S 612 mmHg 45%
    08:00 +14°C° 0 mm 0 m/S 613 mmHg 41%
    09:00 +15°C° 0 mm 0 m/S 613 mmHg 38%
    10:00 +15°C° 0 mm 0 m/S 613 mmHg 35%
    11:00 +18°C° 0 mm 1 m/S 613 mmHg 32%
    12:00 +19°C° 0 mm 1 m/S 613 mmHg 29%
    13:00 +20°C° 0 mm 1 m/S 613 mmHg 26%
    14:00 +20°C° 0 mm 1 m/S 612 mmHg 23%
    15:00 +19°C° 0 mm 2 m/S 612 mmHg 24%
    16:00 +19°C° 0 mm 2 m/S 612 mmHg 24%
    17:00 +19°C° 0 mm 2 m/S 612 mmHg 24%
    18:00 +18°C° 0 mm 2 m/S 612 mmHg 28%
    19:00 +17°C° 0 mm 2 m/S 612 mmHg 33%
    20:00 +16°C° 0 mm 1 m/S 612 mmHg 37%
    21:00 +15°C° 0 mm 1 m/S 612 mmHg 38%
    22:00 +15°C° 0 mm 1 m/S 612 mmHg 40%
    23:00 +14°C° 0 mm 1 m/S 611 mmHg 41%
    Mehr zeigen